Regional Weather Roundup
Issued by NWS

Home | Current Version | Previous Version | Text Only | Print | Product List | Glossary On
Versions: 1 2 3 4 5 6 7 8 9 10 11 12 13 14 15 16 17 18 19 20 21 22 23 24 25 26 27 28 29 30 31 32 33 34 35 36 37 38 39 40 41 42 43 44 45 46 47 48 49 50
000
ASUS45 KTFX 211904
RWRMT
MONTANA HOURLY WEATHER ROUNDUP
NATIONAL WEATHER SERVICE GREAT FALLS MT
1204 PM MST SUN DEC 21 2014

NOTE: "FAIR" INDICATES FEW OR NO CLOUDS BELOW 12000 FEET WITH NO
SIGNIFICANT WEATHER AND/OR OBSTRUCTIONS TO VISIBILITY.

* THESE STATIONS ARE NOT UNDER NWS QUALITY CONTROL. THEY DO NOT
   REPORT WEATHER SUCH AS PRECIPITATION OR FOG.

MTZ001>007-043-212000-
WEST OF THE DIVIDE
CITY           SKY/WX    TMP DP  RH WIND       PRES   REMARKS
KALISPELL      PTSUNNY   45  34  65 SW7       29.59R
MISSOULA       CLOUDY    39  36  89 NW15      29.69R WCI  31
BUTTE          PTSUNNY   37  25  62 NW17G22   29.61R WCI  27
MULLAN PASS    PTSUNNY  N/A N/A N/A N/A       29.67R
* ESSEX        N/A       37  31  79 SE6G11     N/A   WCI  32
* LINCOLN      N/A       38  32  79 SW8G20     N/A   WCI  32
* POLSON       N/A       40  33  76 SW3G14     N/A
* RONAN APT    PTSUNNY   46  34  63 SW14G21    N/A
* SEELEY LAKE  N/A       40  30  68 NW13G34    N/A   WCI  32
* THOMP F APT  PTSUNNY   32  31  96 S4G9       N/A
$$

MTZ008-052>055-212000-
SOUTHWEST MONTANA
CITY           SKY/WX    TMP DP  RH WIND       PRES   REMARKS
BOZEMAN        CLOUDY    41  30  65 W17       29.58R
DILLON         PTSUNNY   43  25  49 W35G44    29.64R
* W YELLOWSTON CLOUDY    33  29  85 SW7G15     N/A   WCI  27
* THREE FORKS  PTSUNNY   46  43  89 W24G30     N/A
* BOULDER HILL N/A       38  19  46 W7G16      N/A   WCI  33
* MONIDA PASS  N/A       31  31 100 VRB4G11    N/A
* RAYNOLDS PAS N/A       34  10  37 SE4G19     N/A
* WHITEHALL    N/A       42  33  71 W16G21     N/A
* WISE RIVER   N/A       35  31  85 W13G34     N/A   WCI  26
$$

MTZ009>010-012-014-046-048-049-054-212000-
EAST SLOPES AND CENTRAL MONTANA
CITY           SKY/WX    TMP DP  RH WIND       PRES   REMARKS
CUT BANK       PTSUNNY   43  30  60 W22       29.35R
GREAT FALLS    PTCLDY    48  28  46 SW29G39   29.39R
HELENA         PTSUNNY   45  30  56 W24G30    29.54F
* DEARBORN     N/A       46  28  50 S21G32     N/A
* EAST GLACIER N/A       35  30  82 SW6        N/A   WCI  30
* MONARCH      N/A       38  22  53 SW22G32    N/A   WCI  27
* PENDROY      N/A       39  29  67 NW18G25    N/A   WCI  30
* ROGERS PASS  N/A       33  33 100 SE14G31    N/A   WCI  23
* SWEET GRASS  N/A       39  30  70 W26        N/A   WCI  28
$$

MTZ011-013-016-021-035-040-045-047-050-051-212000-
NORTH CENTRAL MONTANA
CITY           SKY/WX    TMP DP  RH WIND       PRES   REMARKS
HAVRE          CLOUDY    39  34  82 W9        29.30S WCI  33
LEWISTOWN      CLOUDY    46  30  54 W18G23    29.37R
* N BAR RANCH  SUNNY     46  27  48 W16G24    29.35F
* CHESTER      N/A       42  32  68 W10G15     N/A
* DENTON       N/A       48  30  50 W24G31     N/A
* GEYSER       N/A       45  24  44 W37G50     N/A
* JUDITH GAP   N/A       45  26  47 SW22G30    N/A
* LOMA         N/A       49  33  54 SW21G32    N/A
$$

MTZ017>020-022>027-061-062-212000-
NORTHEAST MONTANA
CITY           SKY/WX    TMP DP  RH WIND       PRES   REMARKS
GLASGOW        N/A       32  27  82 SE6       29.31F WCI  26
GLENDIVE       CLOUDY    36  28  73 SW6       29.36F WCI  31
JORDAN         CLOUDY    39  37  93 NW5       29.33F WCI  35
SIDNEY         CLOUDY    32  27  82 CALM      29.38F
WOLF POINT     CLOUDY    30  27  89 E5        29.33F WCI  25
* BEAVER HILL  N/A       39  25  57 S16G21     N/A   WCI  30
* CIRCLE       N/A       37  33  85 SW8        N/A   WCI  31
* LINDSAY DVD  N/A       35  32  89 S9         N/A   WCI  28
* SACO         N/A       29  28  96 E4         N/A
$$

MTZ028>042-056>058-212000-
SOUTHCENTRAL AND SOUTHEAST MONTANA
CITY           SKY/WX    TMP DP  RH WIND       PRES   REMARKS
BAKER          CLOUDY    39  28  65 S7        29.39F WCI  34
BILLINGS       PTSUNNY   46  30  54 SW13      29.42S
LIVINGSTON     CLOUDY    43 N/A N/A W25G33    29.48F
MILES CITY     CLOUDY    36  28  73 SE10      29.35F WCI  29
* LAUREL APT   PTCLDY    52  27  38 SW17G22    N/A
* ROUNDUP APT  PTSUNNY   46  30  54 W15G23     N/A
* ALZADA       N/A       40  29  65 W2         N/A
* HYSHAM       N/A       42  26  53 W8G15      N/A
* LAME DEER    N/A       42  31  65 W16G26     N/A
* REED POINT   N/A       49  29  46 W24G38     N/A
* ROSCOE HILL  N/A       40  24  53 SW9G24     N/A   WCI  34
$$

REGIONAL REPORTS...DAKOTAS
CITY           SKY/WX    TMP DP  RH WIND       PRES   REMARKS
WILLISTON      CLOUDY    32  27  82 E3        29.37F
DICKINSON      CLOUDY    39  27  62 S9        29.37F WCI  33
BEACH          CLOUDY    37  32  82 S7        29.37F WCI  32
CROSBY         PTSUNNY   32  28  85 S7        29.37F WCI  25
WATFORD CITY   SUNNY     32  28  85 E6        29.35F WCI  26
BISMARCK       SUNNY     36  28  73 SE15      29.47F WCI  27
GRAND FORKS    FOG       30  28  92 S16       29.63F WCI  19
FARGO          FOG       34  28  79 SE15G24   29.64F WCI  24
BUFFALO SD     CLOUDY    37  28  70 W5        29.35F WCI  33
RAPID CITY     CLOUDY    43  30  60 CALM      29.41F
$$

REGIONAL REPORTS...WYOMING/IDAHO/WASHINGTON
CITY           SKY/WX    TMP DP  RH WIND       PRES   REMARKS
GILLETTE       CLOUDY    45  28  51 W12       29.44F
SHERIDAN       CLOUDY    39  34  82 SE3       29.41F
CODY           PTCLDY    43  30  60 W8        29.47F
YELLOWSTONE LA CLOUDY    32  27  82 W15G22    29.62F WCI  22
SALMON         CLOUDY    45  27  49 NW15G28   29.72F
MULLAN PASS    PTSUNNY  N/A N/A N/A N/A       29.67S
SAND POINT     PTCLDY    45  36  71 W14G22    29.71R
SPOKANE        PTCLDY    45  37  74 W21G29    29.77R
$$

REGIONAL REPORTS...ALBERTA
CITY           SKY/WX    TMP DP  RH WIND       PRES   REMARKS
MEDICINE HAT   N/A       36  34  92 SW7       29.26R WCI  30

$$



USA.gov is the U.S. government's official web portal to all federal, state and local government web resources and services.